Lid_Strength_Index
7 6 6 6 6 6 8 11 12 7 8 12 15 15 12 8 9 8 9 10 11 12 12 13 13 12 11 8 9 12 11 14 16 14 10 10 12 14 14 19 18 17 17 17
6 7 6 6 7 7 9 12 11 7 9 18 17 15 12 11 10 9 10 11 11 11 13 14 12 11 9 8 10 11 11 14 18 15 14 12 13 12 12 13 14 17 19 16
7 7 7 7 7 7 10 13 15 13 13 14 16 16 15 13 9 10 10 11 11 13 14 12 13 12 9 9 9 7 8 13 15 17 15 15 15 12 11 13 17 16 16 14
7 7 7 7 7 7 11 14 16 15 18 17 16 16 15 14 13 11 11 12 12 13 15 14 14 12 12 10 8 10 11 15 13 12 12 12 13 13 12 14 13 16 14 14
7 8 7 7 7 8 12 15 16 15 17 15 16 15 16 15 14 13 13 14 12 13 15 14 14 13 14 13 11 12 10 14 13 15 12 12 13 12 12 12 12 13 13 13
8 8 8 7 7 10 14 13 13 13 15 17 17 17 15 15 14 12 11 13 13 14 13 12 12 11 11 11 12 12 13 14 14 16 12 13 16 13 12 12 11 12 15 11
8 8 8 8 7 9 13 13 14 15 17 16 17 15 15 15 14 14 12 12 14 11 9 10 10 11 11 11 11 10 13 12 13 16 14 20 13 10 10 11 10 10 10 9
8 8 8 8 8 8 12 13 14 16 17 14 15 14 15 14 14 14 13 11 10 10 11 13 13 13 13 11 11 11 10 12 15 17 17 15 12 11 12 13 12 9 10 9
8 8 8 8 8 8 13 14 13 15 16 17 14 15 15 17 17 15 13 11 10 11 12 13 16 18 14 15 13 9 10 10 14 16 19 21 14 10 8 9 15 9 9 9
8 8 8 8 8 8 12 14 13 14 16 13 14 17 17 15 16 17 15 11 13 11 11 14 15 16 12 16 15 15 14 14 16 16 17 15 10 9 8 16 14 9 9 8
7 8 8 8 8 8 11 13 12 14 15 14 13 13 15 15 15 17 15 15 13 14 15 13 13 14 13 14 12 14 15 15 16 15 17 19 8 9 13 10 8 7 7 7
7 8 8 8 8 9 9 13 12 10 13 14 13 12 11 11 11 14 14 15 14 13 16 12 14 15 15 14 16 10 15 12 15 13 14 9 7 8 7 8 8 7 7 6
7 8 8 8 8 9 9 11 10 11 14 15 16 15 12 10 10 10 15 14 11 11 7 9 10 14 12 14 15 13 11 10 13 13 10 10 9 7 6 6 6 6 5 6
6 7 8 8 8 8 9 12 12 11 13 16 16 11 11 9 10 10 9 10 10 8 8 9 10 12 9 11 13 14 10 11 12 12 11 10 8 7 6 7 6 5 6 6
6 7 7 8 8 8 10 12 12 10 14 17 16 12 11 10 10 10 10 9 11 10 10 10 11 9 10 10 11 12 11 12 12 13 9 9 9 7 5 6 6 7 7 8
6 7 7 8 8 8 12 15 12 11 10 13 16 13 12 11 10 9 10 10 11 9 10 9 8 8 9 12 13 10 8 7 7 9 6 6 6 6 6 8 9 8 8 8
7 7 7 7 8 10 14 16 12 9 9 13 15 15 12 10 10 9 6 8 8 9 9 9 10 9 9 12 13 9 9 8 7 5 6 7 7 9 8 8 8 8 9 9
7 7 7 7 7 8 11 10 8 8 11 11 14 16 14 10 12 12 8 8 7 7 8 8 9 8 9 12 10 10 9 8 7 6 5 6 7 7 7 8 9 10 11 10
8 7 7 8 11 12 11 6 6 8 10 13 13 15 16 11 12 11 10 6 10 7 9 9 9 11 13 11 12 11 9 8 8 7 7 8 8 9 9 11 10 11 11 11
8 9 10 11 11 8 7 10 11 11 10 11 14 12 15 13 13 12 10 9 11 12 10 8 11 11 10 10 10 9 8 6 5 9 10 9 10 9 10 13 10 11 11 10
12 14 13 12 9 11 14 16 13 12 14 12 12 13 15 12 15 12 8 10 12 13 11 11 12 14 12 10 10 9 7 6 5 8 8 8 9 10 12 11 10 11 11 10
12 12 11 12 12 14 16 17 12 14 16 12 13 14 13 13 11 9 9 11 10 14 9 12 14 12 11 10 10 9 8 7 6 7 8 9 9 10 12 12 11 10 10 9
10 12 13 14 14 18 17 18 17 18 16 13 13 15 15 14 9 9 10 12 13 9 13 13 13 12 10 10 10 9 8 7 6 7 8 9 10 9 10 11 12 11 10 10
12 13 18 16 16 16 17 17 17 15 14 14 15 16 15 14 12 10 12 10 11 15 18 16 13 12 11 11 10 10 9 8 8 7 9 10 10 10 11 12 13 12 13 12
13 13 18 17 15 16 16 15 15 13 14 14 15 14 12 11 11 12 16 17 19 17 18 15 12 11 11 11 10 10 9 8 7 7 10 10 11 11 11 12 11 11 12 12
12 13 16 16 16 17 16 15 14 13 13 13 13 14 15 16 15 17 16 22 20 19 15 11 11 12 12 11 10 10 9 8 7 8 9 10 11 11 11 11 11 11 12 13
13 15 14 16 16 16 15 14 13 12 13 14 14 16 15 14 18 16 15 21 16 12 13 12 11 12 11 10 10 9 9 8 7 8 10 10 10 10 11 12 11 11 11 12